Regional Weather Roundup
Issued by NWS

Home | Current Version | Previous Version | Text Only | Print | Product List | Glossary Off
Versions: 1 2 3 4 5 6 7 8 9 10 11 12 13 14 15 16 17 18 19 20 21 22 23 24 25 26 27 28 29 30 31 32 33 34 35 36 37 38 39 40 41 42 43 44 45 46 47 48 49 50

000
ASUS43 KBIS 271810
RWRND

NORTH DAKOTA REGIONAL WEATHER ROUNDUP
NATIONAL WEATHER SERVICE BISMARCK ND
100 PM CDT THU AUG 27 2015

NOTE: "FAIR" INDICATES FEW OR NO CLOUDS BELOW 12,000 FEET WITH NO
SIGNIFICANT WEATHER AND/OR OBSTRUCTIONS TO VISIBILITY.


NDZ001>003-009>011-017-271900-
NORTHWEST NORTH DAKOTA

CITY           SKY/WX    TMP DP  RH WIND       PRES   REMARKS
WILLISTON      MOSUNNY   79  64  60 SE3       29.96F
6HR MIN TEMP:  58; 6HR MAX TEMP:  79;

MINOT          PTSUNNY   75  62  64 N3        29.95F
MINOT AFB      PTSUNNY   79  66  64 VRB1      29.94F
$$

NDZ018>021-031>035-040>046-271900-
SOUTHWEST NORTH DAKOTA

CITY           SKY/WX    TMP DP  RH WIND       PRES   REMARKS
BISMARCK       CLOUDY    75  65  70 S6        29.98S
6HR MIN TEMP:  58; 6HR MAX TEMP:  77;

DICKINSON      CLOUDY    82  58  43 S7        29.96F
GARRISON         N/A     78  65  63 VRB6      29.96F
6HR MIN TEMP:  61; 6HR MAX TEMP:  78;

HETTINGER ARPT PTSUNNY   79  59  50 S12G21    29.99F
$$

NDZ004>008-012>016-024-026-027-054-271900-
NORTHEAST NORTH DAKOTA

CITY           SKY/WX    TMP DP  RH WIND       PRES   REMARKS
GRAND FORKS    PTSUNNY   73  59  61 S9        29.95F
GRND FRKS AFB  PTSUNNY   73  60  63 S9        29.96S
DEVILS LAKE    PTSUNNY   75  61  60 SE8       29.94F
$$

NDZ022-023-025-028>030-036>039-047>053-271900-
SOUTHEAST NORTH DAKOTA

CITY           SKY/WX    TMP DP  RH WIND       PRES   REMARKS
FARGO          MOSUNNY   76  62  62 S7        29.96S
6HR MIN TEMP:  58; 6HR MAX TEMP:  76;

JAMESTOWN      PTSUNNY   74  65  73 S8        29.96F
$$



USA.gov is the U.S. government's official web portal to all federal, state and local government web resources and services.